Time,TemperatureF,DewpointF,PressureIn,WindDirection,WindDirectionDegrees,WindSpeedMPH,WindSpeedGustMPH,Humidity,HourlyPrecipIn,Conditions,Clouds,dailyrainin,SoftwareType,DateUTC
2017-05-27 00:02:00,65.5,39.2,29.88,North,0,0.0,0.0,38,0.00,,,0.00,VWS V15.00,2017-05-27 04:02:00,
2017-05-27 00:07:00,65.5,39.9,29.88,North,0,0.0,0.0,39,0.00,,,0.00,VWS V15.00,2017-05-27 04:07:00,
2017-05-27 00:12:00,65.3,39.7,29.85,North,0,0.0,0.0,39,0.00,,,0.00,VWS V15.00,2017-05-27 04:12:00,
2017-05-27 00:17:00,65.1,39.6,29.85,North,0,0.0,0.0,39,0.00,,,0.00,VWS V15.00,2017-05-27 04:17:00,
2017-05-27 00:22:00,64.9,40.1,29.85,North,0,0.0,0.0,40,0.00,,,0.00,VWS V15.00,2017-05-27 04:22:00,
2017-05-27 00:27:00,64.8,39.9,29.85,North,0,0.0,0.0,40,0.00,,,0.00,VWS V15.00,2017-05-27 04:27:00,
2017-05-27 00:32:00,64.8,39.9,29.85,North,0,0.0,0.0,40,0.00,,,0.00,VWS V15.00,2017-05-27 04:32:00,
2017-05-27 00:37:00,64.8,40.5,29.85,North,0,0.0,0.0,41,0.00,,,0.00,VWS V15.00,2017-05-27 04:37:00,
2017-05-27 00:42:00,64.9,40.7,29.85,North,0,0.0,0.0,41,0.00,,,0.00,VWS V15.00,2017-05-27 04:42:00,
2017-05-27 00:47:00,64.9,41.3,29.85,North,0,0.0,0.0,42,0.00,,,0.00,VWS V15.00,2017-05-27 04:47:00,
2017-05-27 00:52:00,65.1,42.1,29.85,North,0,0.0,0.0,43,0.00,,,0.00,VWS V15.00,2017-05-27 04:52:00,
2017-05-27 00:57:00,65.1,42.1,29.85,North,0,0.0,0.0,43,0.00,,,0.00,VWS V15.00,2017-05-27 04:57:00,
2017-05-27 00:59:00,65.3,42.2,29.85,North,0,0.0,0.0,43,0.00,,,0.00,VWS V15.00,2017-05-27 04:59:00,
2017-05-27 01:02:00,65.5,42.4,29.85,North,0,0.0,0.0,43,0.00,,,0.00,VWS V15.00,2017-05-27 05:02:00,
2017-05-27 01:07:00,65.5,42.4,29.85,North,0,0.0,0.0,43,0.00,,,0.00,VWS V15.00,2017-05-27 05:07:00,
2017-05-27 01:12:00,65.5,42.4,29.85,North,0,0.0,0.0,43,0.00,,,0.00,VWS V15.00,2017-05-27 05:12:00,
2017-05-27 01:17:00,65.5,43.0,29.85,North,0,0.0,0.0,44,0.00,,,0.00,VWS V15.00,2017-05-27 05:17:00,
2017-05-27 01:22:00,65.5,43.0,29.85,North,0,0.0,0.0,44,0.00,,,0.00,VWS V15.00,2017-05-27 05:22:00,
2017-05-27 01:27:00,65.5,43.0,29.85,North,0,0.0,0.0,44,0.00,,,0.00,VWS V15.00,2017-05-27 05:27:00,
2017-05-27 01:32:00,65.3,42.8,29.85,North,0,0.0,0.0,44,0.00,,,0.00,VWS V15.00,2017-05-27 05:32:00,
2017-05-27 01:37:00,65.3,43.4,29.85,North,0,0.0,0.0,45,0.00,,,0.00,VWS V15.00,2017-05-27 05:37:00,
2017-05-27 01:42:00,65.3,43.4,29.85,North,0,0.0,0.0,45,0.00,,,0.00,VWS V15.00,2017-05-27 05:42:00,
2017-05-27 01:47:00,65.3,43.4,29.85,North,0,0.0,0.0,45,0.00,,,0.00,VWS V15.00,2017-05-27 05:47:00,
2017-05-27 01:52:00,65.3,43.4,29.85,North,0,0.0,0.0,45,0.00,,,0.00,VWS V15.00,2017-05-27 05:52:00,
2017-05-27 01:57:00,65.1,43.8,29.85,North,0,0.0,0.0,46,0.00,,,0.00,VWS V15.00,2017-05-27 05:57:00,
2017-05-27 02:02:00,65.1,43.8,29.85,North,0,0.0,0.0,46,0.00,,,0.00,VWS V15.00,2017-05-27 06:02:00,
2017-05-27 02:07:00,65.1,43.8,29.85,North,0,0.0,0.0,46,0.00,,,0.00,VWS V15.00,2017-05-27 06:07:00,
2017-05-27 02:12:00,64.9,44.2,29.82,North,0,0.0,0.0,47,0.00,,,0.00,VWS V15.00,2017-05-27 06:12:00,
2017-05-27 02:17:00,64.9,43.7,29.82,North,0,0.0,0.0,46,0.00,,,0.00,VWS V15.00,2017-05-27 06:17:00,
2017-05-27 02:22:00,64.8,43.5,29.82,North,0,0.0,0.0,46,0.00,,,0.00,VWS V15.00,2017-05-27 06:22:00,
2017-05-27 02:27:00,64.8,43.5,29.82,North,0,0.0,0.0,46,0.00,,,0.00,VWS V15.00,2017-05-27 06:27:00,
2017-05-27 02:32:00,64.8,43.5,29.82,North,0,0.0,0.0,46,0.00,,,0.00,VWS V15.00,2017-05-27 06:32:00,
2017-05-27 02:37:00,64.8,44.1,29.82,North,0,0.0,0.0,47,0.00,,,0.00,VWS V15.00,2017-05-27 06:37:00,
2017-05-27 02:42:00,64.8,44.6,29.82,North,0,0.0,0.0,48,0.00,,,0.00,VWS V15.00,2017-05-27 06:42:00,
2017-05-27 02:47:00,64.9,44.8,29.82,North,0,0.0,0.0,48,0.00,,,0.00,VWS V15.00,2017-05-27 06:47:00,
2017-05-27 02:52:00,64.8,44.6,29.82,North,0,0.0,0.0,48,0.00,,,0.00,VWS V15.00,2017-05-27 06:52:00,
2017-05-27 02:57:00,64.8,45.2,29.82,North,0,0.0,0.0,49,0.00,,,0.00,VWS V15.00,2017-05-27 06:57:00,
2017-05-27 03:02:00,64.6,45.0,29.82,North,0,0.0,0.0,49,0.00,,,0.00,VWS V15.00,2017-05-27 07:02:00,
2017-05-27 03:07:00,64.4,44.8,29.82,North,0,0.0,0.0,49,0.00,,,0.00,VWS V15.00,2017-05-27 07:07:00,
2017-05-27 03:12:00,64.4,45.4,29.82,North,0,0.0,0.0,50,0.00,,,0.00,VWS V15.00,2017-05-27 07:12:00,
2017-05-27 03:17:00,64.2,45.7,29.82,North,0,0.0,0.0,51,0.00,,,0.00,VWS V15.00,2017-05-27 07:17:00,
2017-05-27 03:22:00,64.2,46.2,29.82,North,0,0.0,0.0,52,0.00,,,0.00,VWS V15.00,2017-05-27 07:22:00,
2017-05-27 03:27:00,64.4,45.9,29.82,North,0,0.0,0.0,51,0.00,,,0.00,VWS V15.00,2017-05-27 07:27:00,
2017-05-27 03:32:00,64.4,46.4,29.82,North,0,0.0,0.0,52,0.00,,,0.00,VWS V15.00,2017-05-27 07:32:00,
2017-05-27 03:37:00,64.4,46.4,29.82,North,0,0.0,0.0,52,0.00,,,0.00,VWS V15.00,2017-05-27 07:37:00,
2017-05-27 03:42:00,64.8,47.2,29.82,North,0,0.0,0.0,53,0.00,,,0.00,VWS V15.00,2017-05-27 07:42:00,
2017-05-27 03:47:00,64.8,47.2,29.82,North,0,0.0,0.0,53,0.00,,,0.00,VWS V15.00,2017-05-27 07:47:00,
2017-05-27 03:52:00,64.9,47.4,29.82,North,0,0.0,0.0,53,0.00,,,0.00,VWS V15.00,2017-05-27 07:52:00,
2017-05-27 03:57:00,64.9,47.9,29.82,North,0,0.0,0.0,54,0.00,,,0.00,VWS V15.00,2017-05-27 07:57:00,
2017-05-27 04:02:00,64.9,47.9,29.82,North,0,0.0,0.0,54,0.00,,,0.00,VWS V15.00,2017-05-27 08:02:00,
2017-05-27 04:07:00,65.1,47.6,29.82,North,0,0.0,0.0,53,0.00,,,0.00,VWS V15.00,2017-05-27 08:07:00,
2017-05-27 04:12:00,65.1,48.1,29.82,North,0,0.0,0.0,54,0.00,,,0.00,VWS V15.00,2017-05-27 08:12:00,
2017-05-27 04:17:00,65.3,48.7,29.82,North,0,0.0,0.0,55,0.00,,,0.00,VWS V15.00,2017-05-27 08:17:00,
2017-05-27 04:22:00,65.3,48.7,29.82,North,0,0.0,0.0,55,0.00,,,0.00,VWS V15.00,2017-05-27 08:22:00,
2017-05-27 04:27:00,65.5,48.9,29.82,North,0,0.0,0.0,55,0.00,,,0.00,VWS V15.00,2017-05-27 08:27:00,
2017-05-27 04:33:00,65.5,48.9,29.82,North,0,0.0,0.0,55,0.00,,,0.00,VWS V15.00,2017-05-27 08:33:00,
2017-05-27 04:38:00,65.5,49.4,29.82,North,0,0.0,0.0,56,0.00,,,0.00,VWS V15.00,2017-05-27 08:38:00,
2017-05-27 04:43:00,65.7,50.0,29.82,North,0,0.0,0.0,57,0.00,,,0.00,VWS V15.00,2017-05-27 08:43:00,
2017-05-27 04:48:00,65.7,50.5,29.82,North,0,0.0,0.0,58,0.00,,,0.00,VWS V15.00,2017-05-27 08:48:00,
2017-05-27 04:53:00,65.7,51.0,29.82,North,0,0.0,0.0,59,0.00,,,0.00,VWS V15.00,2017-05-27 08:53:00,
2017-05-27 04:58:00,65.8,51.6,29.82,North,0,0.0,0.0,60,0.00,,,0.00,VWS V15.00,2017-05-27 08:58:00,
2017-05-27 05:03:00,65.8,51.6,29.82,North,0,0.0,0.0,60,0.00,,,0.00,VWS V15.00,2017-05-27 09:03:00,
2017-05-27 05:08:00,66.0,51.8,29.82,North,0,0.0,0.0,60,0.00,,,0.00,VWS V15.00,2017-05-27 09:08:00,
2017-05-27 05:13:00,66.0,51.8,29.82,North,0,0.0,0.0,60,0.00,,,0.00,VWS V15.00,2017-05-27 09:13:00,
2017-05-27 05:18:00,66.2,51.5,29.82,North,0,0.0,0.0,59,0.00,,,0.00,VWS V15.00,2017-05-27 09:18:00,
2017-05-27 05:23:00,66.2,51.5,29.82,North,0,0.0,0.0,59,0.00,,,0.00,VWS V15.00,2017-05-27 09:23:00,
2017-05-27 05:28:00,66.4,51.2,29.82,North,0,0.0,0.0,58,0.00,,,0.00,VWS V15.00,2017-05-27 09:28:00,
2017-05-27 05:33:00,66.4,51.2,29.82,North,0,0.0,0.0,58,0.00,,,0.00,VWS V15.00,2017-05-27 09:33:00,
2017-05-27 05:38:00,66.6,50.9,29.82,North,0,0.0,0.0,57,0.00,,,0.00,VWS V15.00,2017-05-27 09:38:00,
2017-05-27 05:43:00,66.6,50.4,29.82,North,0,0.0,0.0,56,0.00,,,0.00,VWS V15.00,2017-05-27 09:43:00,
2017-05-27 05:48:00,66.6,50.9,29.82,North,0,0.0,0.0,57,0.00,,,0.00,VWS V15.00,2017-05-27 09:48:00,
2017-05-27 05:55:00,66.7,50.6,29.82,North,0,0.0,0.0,56,0.00,,,0.00,VWS V15.00,2017-05-27 09:55:00,
2017-05-27 06:00:00,66.7,51.0,29.82,North,0,0.0,0.0,57,0.00,,,0.00,VWS V15.00,2017-05-27 10:00:00,
2017-05-27 06:06:00,66.7,51.0,29.82,North,0,0.0,0.0,57,0.00,,,0.00,VWS V15.00,2017-05-27 10:06:00,
2017-05-27 06:11:00,66.9,51.2,29.82,North,0,0.0,0.0,57,0.00,,,0.00,VWS V15.00,2017-05-27 10:11:00,
2017-05-27 06:16:00,66.9,50.2,29.82,North,0,0.0,0.0,55,0.00,,,0.00,VWS V15.00,2017-05-27 10:16:00,
2017-05-27 06:22:00,66.9,50.7,29.82,North,0,0.0,0.0,56,0.00,,,0.00,VWS V15.00,2017-05-27 10:22:00,
2017-05-27 06:27:00,67.1,50.4,29.82,North,0,0.0,0.0,55,0.00,,,0.00,VWS V15.00,2017-05-27 10:27:00,
2017-05-27 06:32:00,67.1,50.4,29.82,North,0,0.0,0.0,55,0.00,,,0.00,VWS V15.00,2017-05-27 10:32:00,
2017-05-27 06:38:00,67.3,50.6,29.82,North,0,0.0,0.0,55,0.00,,,0.00,VWS V15.00,2017-05-27 10:38:00,
2017-05-27 06:43:00,67.3,50.6,29.82,North,0,0.0,0.0,55,0.00,,,0.00,VWS V15.00,2017-05-27 10:43:00,
2017-05-27 06:48:00,67.3,50.6,29.82,North,0,0.0,0.0,55,0.00,,,0.00,VWS V15.00,2017-05-27 10:48:00,
2017-05-27 06:53:00,67.3,50.6,29.82,North,0,0.0,0.0,55,0.00,,,0.00,VWS V15.00,2017-05-27 10:53:00,
2017-05-27 06:58:00,67.5,50.8,29.85,North,0,0.0,0.0,55,0.00,,,0.00,VWS V15.00,2017-05-27 10:58:00,
2017-05-27 07:03:00,67.5,50.2,29.85,North,0,0.0,0.0,54,0.00,,,0.00,VWS V15.00,2017-05-27 11:03:00,
2017-05-27 07:08:00,67.6,50.9,29.85,North,0,0.0,0.0,55,0.00,,,0.00,VWS V15.00,2017-05-27 11:08:00,
2017-05-27 07:13:00,67.6,50.9,29.85,North,0,0.0,0.0,55,0.00,,,0.00,VWS V15.00,2017-05-27 11:13:00,
2017-05-27 07:18:00,67.8,50.1,29.85,North,0,0.0,0.0,53,0.00,,,0.00,VWS V15.00,2017-05-27 11:18:00,
2017-05-27 07:23:00,68.0,50.2,29.85,North,0,0.0,0.0,53,0.00,,,0.00,VWS V15.00,2017-05-27 11:23:00,
2017-05-27 07:28:00,68.2,50.4,29.85,North,0,0.0,0.0,53,0.00,,,0.00,VWS V15.00,2017-05-27 11:28:00,
2017-05-27 07:33:00,68.4,50.1,29.85,North,0,0.0,0.0,52,0.00,,,0.00,VWS V15.00,2017-05-27 11:33:00,
2017-05-27 07:38:00,68.4,50.1,29.85,North,0,0.0,0.0,52,0.00,,,0.00,VWS V15.00,2017-05-27 11:38:00,
2017-05-27 07:43:00,68.5,49.7,29.85,North,0,0.0,0.0,51,0.00,,,0.00,VWS V15.00,2017-05-27 11:43:00,
2017-05-27 07:48:00,68.7,49.9,29.85,North,0,0.0,0.0,51,0.00,,,0.00,VWS V15.00,2017-05-27 11:48:00,
2017-05-27 07:53:00,68.9,50.0,29.85,North,0,0.0,0.0,51,0.00,,,0.00,VWS V15.00,2017-05-27 11:53:00,
2017-05-27 07:58:00,69.3,49.8,29.85,North,0,0.0,0.0,50,0.00,,,0.00,VWS V15.00,2017-05-27 11:58:00,
2017-05-27 08:03:00,69.4,49.5,29.85,North,0,0.0,0.0,49,0.00,,,0.00,VWS V15.00,2017-05-27 12:03:00,
2017-05-27 08:08:00,69.3,49.3,29.85,North,0,0.0,0.0,49,0.00,,,0.00,VWS V15.00,2017-05-27 12:08:00,
2017-05-27 08:13:00,69.3,48.8,29.85,North,0,0.0,0.0,48,0.00,,,0.00,VWS V15.00,2017-05-27 12:13:00,
2017-05-27 08:23:00,69.4,48.9,29.85,North,0,0.0,0.0,48,0.00,,,0.00,VWS V15.00,2017-05-27 12:23:00,
2017-05-27 08:28:00,69.4,48.9,29.85,North,0,0.0,0.0,48,0.00,,,0.00,VWS V15.00,2017-05-27 12:28:00,
2017-05-27 08:33:00,69.8,48.7,29.85,North,0,0.0,0.0,47,0.00,,,0.00,VWS V15.00,2017-05-27 12:33:00,
2017-05-27 08:38:00,70.0,48.8,29.85,North,0,0.0,0.0,47,0.00,,,0.00,VWS V15.00,2017-05-27 12:38:00,
2017-05-27 08:43:00,70.2,48.4,29.85,North,0,0.0,0.0,46,0.00,,,0.00,VWS V15.00,2017-05-27 12:43:00,
2017-05-27 08:48:00,70.3,48.6,29.85,North,0,0.0,0.0,46,0.00,,,0.00,VWS V15.00,2017-05-27 12:48:00,
2017-05-27 08:53:00,70.3,48.6,29.85,North,0,0.0,0.0,46,0.00,,,0.00,VWS V15.00,2017-05-27 12:53:00,
2017-05-27 08:58:00,70.5,48.2,29.85,North,0,0.0,0.0,45,0.00,,,0.00,VWS V15.00,2017-05-27 12:58:00,
2017-05-27 09:03:00,70.5,48.2,29.85,North,0,0.0,0.0,45,0.00,,,0.00,VWS V15.00,2017-05-27 13:03:00,
2017-05-27 09:08:00,70.5,48.8,29.85,North,0,0.0,0.0,46,0.00,,,0.00,VWS V15.00,2017-05-27 13:08:00,
2017-05-27 09:13:00,70.5,48.2,29.85,North,0,0.0,0.0,45,0.00,,,0.00,VWS V15.00,2017-05-27 13:13:00,
2017-05-27 09:18:00,71.1,48.7,29.85,North,0,0.0,0.0,45,0.00,,,0.00,VWS V15.00,2017-05-27 13:18:00,
2017-05-27 09:23:00,71.6,48.6,29.85,North,0,0.0,0.0,44,0.00,,,0.00,VWS V15.00,2017-05-27 13:23:00,
2017-05-27 09:28:00,71.6,47.9,29.85,North,0,0.0,0.0,43,0.00,,,0.00,VWS V15.00,2017-05-27 13:28:00,
2017-05-27 09:33:00,72.1,48.4,29.85,North,0,0.0,0.0,43,0.00,,,0.00,VWS V15.00,2017-05-27 13:33:00,
2017-05-27 09:38:00,72.7,48.3,29.85,North,0,0.0,0.0,42,0.00,,,0.00,VWS V15.00,2017-05-27 13:38:00,
2017-05-27 09:43:00,73.2,48.8,29.85,North,0,0.0,0.0,42,0.00,,,0.00,VWS V15.00,2017-05-27 13:43:00,
2017-05-27 09:48:00,73.0,48.0,29.85,North,0,0.0,0.0,41,0.00,,,0.00,VWS V15.00,2017-05-27 13:48:00,
2017-05-27 09:53:00,73.6,48.5,29.85,North,0,0.0,0.0,41,0.00,,,0.00,VWS V15.00,2017-05-27 13:53:00,
2017-05-27 09:58:00,73.4,48.3,29.85,North,0,0.0,0.0,41,0.00,,,0.00,VWS V15.00,2017-05-27 13:58:00,
2017-05-27 10:03:00,73.4,48.3,29.85,North,0,0.0,0.0,41,0.00,,,0.00,VWS V15.00,2017-05-27 14:03:00,
2017-05-27 10:08:00,73.4,47.6,29.85,North,0,0.0,0.0,40,0.00,,,0.00,VWS V15.00,2017-05-27 14:08:00,
2017-05-27 10:13:00,73.2,48.1,29.85,North,0,0.0,0.0,41,0.00,,,0.00,VWS V15.00,2017-05-27 14:13:00,
2017-05-27 10:18:00,73.0,48.0,29.85,North,0,0.0,0.0,41,0.00,,,0.00,VWS V15.00,2017-05-27 14:18:00,
2017-05-27 10:23:00,73.6,47.8,29.85,North,0,0.0,0.0,40,0.00,,,0.00,VWS V15.00,2017-05-27 14:23:00,
2017-05-27 10:28:00,74.1,48.3,29.85,North,0,0.0,0.0,40,0.00,,,0.00,VWS V15.00,2017-05-27 14:28:00,
2017-05-27 10:33:00,74.1,48.3,29.85,North,0,0.0,0.0,40,0.00,,,0.00,VWS V15.00,2017-05-27 14:33:00,
2017-05-27 10:38:00,74.5,46.5,29.85,North,0,0.0,0.0,37,0.00,,,0.00,VWS V15.00,2017-05-27 14:38:00,
2017-05-27 10:43:00,74.5,46.5,29.85,North,0,0.0,0.0,37,0.00,,,0.00,VWS V15.00,2017-05-27 14:43:00,
2017-05-27 10:48:00,74.5,46.5,29.85,North,0,0.0,0.0,37,0.00,,,0.00,VWS V15.00,2017-05-27 14:48:00,
2017-05-27 10:53:00,74.1,46.9,29.85,North,0,0.0,0.0,38,0.00,,,0.00,VWS V15.00,2017-05-27 14:53:00,
2017-05-27 10:58:00,74.7,46.7,29.85,North,0,0.0,0.0,37,0.00,,,0.00,VWS V15.00,2017-05-27 14:58:00,
2017-05-27 11:03:00,74.7,46.7,29.85,North,0,0.0,0.0,37,0.00,,,0.00,VWS V15.00,2017-05-27 15:03:00,
2017-05-27 11:09:00,74.3,46.4,29.85,North,0,0.0,0.0,37,0.00,,,0.00,VWS V15.00,2017-05-27 15:09:00,
2017-05-27 11:14:00,74.1,45.5,29.85,North,0,0.0,0.0,36,0.00,,,0.00,VWS V15.00,2017-05-27 15:14:00,
2017-05-27 11:19:00,74.3,45.7,29.85,North,0,0.0,0.0,36,0.00,,,0.00,VWS V15.00,2017-05-27 15:19:00,
2017-05-27 11:24:00,74.3,46.4,29.85,North,0,0.0,0.0,37,0.00,,,0.00,VWS V15.00,2017-05-27 15:24:00,
2017-05-27 11:29:00,75.0,46.3,29.85,North,0,0.0,0.0,36,0.00,,,0.00,VWS V15.00,2017-05-27 15:29:00,
2017-05-27 11:34:00,75.4,45.9,29.85,North,0,0.0,0.0,35,0.00,,,0.00,VWS V15.00,2017-05-27 15:34:00,
2017-05-27 11:39:00,76.1,46.5,29.85,North,0,0.0,0.0,35,0.00,,,0.00,VWS V15.00,2017-05-27 15:39:00,
2017-05-27 11:44:00,77.0,45.7,29.85,North,0,0.0,0.0,33,0.00,,,0.00,VWS V15.00,2017-05-27 15:44:00,
2017-05-27 11:49:00,76.5,46.0,29.85,North,0,0.0,0.0,34,0.00,,,0.00,VWS V15.00,2017-05-27 15:49:00,
2017-05-27 11:54:00,76.6,46.2,29.85,North,0,0.0,0.0,34,0.00,,,0.00,VWS V15.00,2017-05-27 15:54:00,
2017-05-27 11:59:00,76.8,45.6,29.85,North,0,0.0,0.0,33,0.00,,,0.00,VWS V15.00,2017-05-27 15:59:00,
2017-05-27 12:04:00,77.0,45.7,29.85,North,0,0.0,0.0,33,0.00,,,0.00,VWS V15.00,2017-05-27 16:04:00,
2017-05-27 12:09:00,76.3,45.1,29.85,North,0,0.0,0.0,33,0.00,,,0.00,VWS V15.00,2017-05-27 16:09:00,
2017-05-27 12:14:00,76.5,45.2,29.85,North,0,0.0,0.0,33,0.00,,,0.00,VWS V15.00,2017-05-27 16:14:00,
2017-05-27 12:19:00,76.5,45.2,29.85,North,0,0.0,0.0,33,0.00,,,0.00,VWS V15.00,2017-05-27 16:19:00,
2017-05-27 12:24:00,76.8,45.6,29.88,North,0,0.0,0.0,33,0.00,,,0.00,VWS V15.00,2017-05-27 16:24:00,
2017-05-27 12:29:00,77.4,45.2,29.88,North,0,0.0,0.0,32,0.00,,,0.00,VWS V15.00,2017-05-27 16:29:00,
2017-05-27 12:34:00,78.1,45.8,29.88,North,0,0.0,0.0,32,0.00,,,0.00,VWS V15.00,2017-05-27 16:34:00,
2017-05-27 12:39:00,78.8,45.6,29.88,North,0,0.0,0.0,31,0.00,,,0.00,VWS V15.00,2017-05-27 16:39:00,
2017-05-27 12:44:00,78.4,45.3,29.88,North,0,0.0,0.0,31,0.00,,,0.00,VWS V15.00,2017-05-27 16:44:00,
2017-05-27 12:49:00,79.0,45.8,29.88,North,0,0.0,0.0,31,0.00,,,0.00,VWS V15.00,2017-05-27 16:49:00,
2017-05-27 12:54:00,79.0,44.9,29.88,North,0,0.0,0.0,30,0.00,,,0.00,VWS V15.00,2017-05-27 16:54:00,
2017-05-27 12:59:00,79.7,45.6,29.88,North,0,0.0,0.0,30,0.00,,,0.00,VWS V15.00,2017-05-27 16:59:00,
2017-05-27 13:04:00,79.5,45.4,29.88,North,0,0.0,0.0,30,0.00,,,0.00,VWS V15.00,2017-05-27 17:04:00,
2017-05-27 13:09:00,79.5,45.4,29.88,North,0,0.0,0.0,30,0.00,,,0.00,VWS V15.00,2017-05-27 17:09:00,
2017-05-27 13:14:00,81.9,45.6,29.88,North,0,0.0,0.0,28,0.00,,,0.00,VWS V15.00,2017-05-27 17:14:00,
2017-05-27 13:19:00,80.8,44.7,29.88,North,0,0.0,0.0,28,0.00,,,0.00,VWS V15.00,2017-05-27 17:19:00,
2017-05-27 13:24:00,80.8,44.7,29.88,North,0,0.0,0.0,28,0.00,,,0.00,VWS V15.00,2017-05-27 17:24:00,
2017-05-27 13:29:00,81.7,44.5,29.88,North,0,0.0,0.0,27,0.00,,,0.00,VWS V15.00,2017-05-27 17:29:00,
2017-05-27 13:34:00,83.8,44.3,29.88,North,0,0.0,0.0,25,0.00,,,0.00,VWS V15.00,2017-05-27 17:34:00,
2017-05-27 13:39:00,83.3,41.7,29.88,North,0,0.0,0.0,23,0.00,,,0.00,VWS V15.00,2017-05-27 17:39:00,
2017-05-27 13:44:00,82.2,42.9,29.88,North,0,0.0,0.0,25,0.00,,,0.00,VWS V15.00,2017-05-27 17:44:00,
2017-05-27 13:49:00,81.9,42.6,29.88,North,0,0.0,0.0,25,0.00,,,0.00,VWS V15.00,2017-05-27 17:49:00,
2017-05-27 13:54:00,83.3,41.7,29.88,North,0,0.0,0.0,23,0.00,,,0.00,VWS V15.00,2017-05-27 17:54:00,
2017-05-27 13:59:00,82.9,41.4,29.88,North,0,0.0,0.0,23,0.00,,,0.00,VWS V15.00,2017-05-27 17:59:00,
2017-05-27 14:04:00,85.5,41.1,29.88,North,0,0.0,0.0,21,0.00,,,0.00,VWS V15.00,2017-05-27 18:04:00,
2017-05-27 14:09:00,84.2,38.8,29.88,North,0,0.0,0.0,20,0.00,,,0.00,VWS V15.00,2017-05-27 18:09:00,
2017-05-27 14:14:00,84.4,39.0,29.88,North,0,0.0,0.0,20,0.00,,,0.00,VWS V15.00,2017-05-27 18:14:00,
2017-05-27 14:19:00,84.2,38.8,29.88,North,0,0.0,0.0,20,0.00,,,0.00,VWS V15.00,2017-05-27 18:19:00,
2017-05-27 14:24:00,84.2,38.8,29.88,North,0,0.0,0.0,20,0.00,,,0.00,VWS V15.00,2017-05-27 18:24:00,
2017-05-27 14:29:00,84.6,37.8,29.88,North,0,0.0,0.0,19,0.00,,,0.00,VWS V15.00,2017-05-27 18:29:00,
2017-05-27 14:34:00,86.0,39.0,29.88,North,0,0.0,0.0,19,0.00,,,0.00,VWS V15.00,2017-05-27 18:34:00,
2017-05-27 14:39:00,87.4,38.8,29.88,North,0,0.0,0.0,18,0.00,,,0.00,VWS V15.00,2017-05-27 18:39:00,
2017-05-27 14:44:00,86.9,35.3,29.85,North,0,0.0,0.0,16,0.00,,,0.00,VWS V15.00,2017-05-27 18:44:00,
2017-05-27 14:49:00,87.1,38.5,29.85,North,0,0.0,0.0,18,0.00,,,0.00,VWS V15.00,2017-05-27 18:49:00,
2017-05-27 14:54:00,87.8,34.5,29.85,North,0,0.0,0.0,15,0.00,,,0.00,VWS V15.00,2017-05-27 18:54:00,
2017-05-27 14:59:00,87.6,35.9,29.85,North,0,0.0,0.0,16,0.00,,,0.00,VWS V15.00,2017-05-27 18:59:00,
2017-05-27 15:04:00,86.7,30.0,29.85,North,0,0.0,0.0,13,0.00,,,0.00,VWS V15.00,2017-05-27 19:04:00,
2017-05-27 15:09:00,87.1,30.3,29.85,North,0,0.0,0.0,13,0.00,,,0.00,VWS V15.00,2017-05-27 19:09:00,
2017-05-27 15:14:00,86.2,34.8,29.85,North,0,0.0,0.0,16,0.00,,,0.00,VWS V15.00,2017-05-27 19:14:00,
2017-05-27 15:19:00,85.8,29.4,29.85,North,0,0.0,0.0,13,0.00,,,0.00,VWS V15.00,2017-05-27 19:19:00,
2017-05-27 15:24:00,88.3,31.3,29.85,North,0,0.0,0.0,13,0.00,,,0.00,VWS V15.00,2017-05-27 19:24:00,
2017-05-27 15:29:00,88.5,25.1,29.85,North,0,0.0,0.0,10,0.00,,,0.00,VWS V15.00,2017-05-27 19:29:00,
2017-05-27 15:34:00,89.2,25.6,29.85,North,0,0.0,0.0,10,0.00,,,0.00,VWS V15.00,2017-05-27 19:34:00,
2017-05-27 15:39:00,88.7,25.2,29.85,North,0,0.0,0.0,10,0.00,,,0.00,VWS V15.00,2017-05-27 19:39:00,
2017-05-27 15:44:00,88.0,24.7,29.85,North,0,0.0,0.0,10,0.00,,,0.00,VWS V15.00,2017-05-27 19:44:00,
2017-05-27 15:49:00,87.1,26.3,29.85,North,0,0.0,0.0,11,0.00,,,0.00,VWS V15.00,2017-05-27 19:49:00,
2017-05-27 15:54:00,86.9,26.1,29.85,North,0,0.0,0.0,11,0.00,,,0.00,VWS V15.00,2017-05-27 19:54:00,
2017-05-27 15:59:00,86.2,25.6,29.85,North,0,0.0,0.0,11,0.00,,,0.00,VWS V15.00,2017-05-27 19:59:00,
2017-05-27 16:04:00,85.8,25.3,29.85,North,0,0.0,0.0,11,0.00,,,0.00,VWS V15.00,2017-05-27 20:04:00,
2017-05-27 16:09:00,90.0,26.2,29.85,North,0,0.0,0.0,10,0.00,,,0.00,VWS V15.00,2017-05-27 20:09:00,
2017-05-27 16:14:00,89.1,20.2,29.85,North,0,0.0,0.0,8,0.00,,,0.00,VWS V15.00,2017-05-27 20:14:00,
2017-05-27 16:20:00,90.0,17.7,29.85,North,0,0.0,0.0,7,0.00,,,0.00,VWS V15.00,2017-05-27 20:20:00,
2017-05-27 16:25:00,88.0,19.4,29.85,North,0,0.0,0.0,8,0.00,,,0.00,VWS V15.00,2017-05-27 20:25:00,
2017-05-27 16:30:00,89.1,20.2,29.85,North,0,0.0,0.0,8,0.00,,,0.00,VWS V15.00,2017-05-27 20:30:00,
2017-05-27 16:35:00,87.1,18.7,29.85,North,0,0.0,0.0,8,0.00,,,0.00,VWS V15.00,2017-05-27 20:35:00,